Content
SEND FEEDBACK

Daily
Averages
Monthly
Summary
United States of America

GREENWICH, KANSAS


Home > North America > United States > Kansas
Elevation: 1318 feet     Latitude: 37 39N     Longitude: 097 26W

WEATHER
 
SELECT A DAY
Number of Records: 196,381;   Date Range: 1/1/95 - 12/18/14
 
SHARE

PRINT THIS DATA

[ ← Previous Day ]
WEATHER ALMANAC - MARCH 19, 2013
[ Next Day → ]
[ °C ]   °F
Weather ElementAverageHighLow
Temperature43.3 °F54 °F (3:53 pm)32 °F (7:53 am)
Dewpoint21.8 °F32 °F (9:53 pm)16 °F (9:53 am)
Humidity45.6 %82 % (11:53 pm)25 % (12:53 pm)
Barometer30.18 in30.30 in (11:53 pm)30.06 in (1:53 am)
Wind Speed9.1 mph16.1 mph (6:53 pm)
Wind Gust23 mph (11:53 am)
Weather ElementAverage
Visibility10 mi
Wind DirectionE (88.3 °)

Weather ElementTotal
Precipitation---
Heating Degree Days22 (Base 65)
Averaged from 23 records on March 19, 2013
WEATHER CONDITIONS BREAKOUT
WIND DIRECTION BREAKOUT
WEATHER BY HOUR - MARCH 19, 2013
[ °C ]   °F
Local TimeTemperatureDewpointHumidityBarometerVisibilityWind DirectionWind SpeedGust SpeedPrecipitationEventsConditions
1:53 AM39.0 °F23.0 °F53 %30.06 in10.0 miENE (70°)8.1 mphClear
2:53 AM37.9 °F19.9 °F48 %30.08 in10.0 miENE (70°)10.4 mphClear
3:53 AM36.0 °F18.0 °F48 %30.09 in10.0 miENE (70°)10.4 mphClear
4:53 AM34.0 °F19.0 °F54 %30.11 in10.0 miENE (70°)6.9 mphClear
5:53 AM33.1 °F18.0 °F54 %30.13 in10.0 miENE (70°)8.1 mphClear
6:53 AM33.1 °F18.0 °F54 %30.15 in10.0 miEast (90°)9.2 mphClear
7:53 AM32.0 °F19.0 °F59 %30.18 in10.0 miEast (100°)8.1 mphScattered Clouds
8:53 AM37.0 °F18.0 °F46 %30.19 in10.0 miSE (130°)9.2 mphMostly Cloudy
9:53 AM42.1 °F16.0 °F35 %30.19 in10.0 miESE (120°)11.5 mphMostly Cloudy
10:53 AM46.9 °F19.0 °F33 %30.19 in10.0 miESE (120°)11.5 mphMostly Cloudy
11:53 AM50.0 °F19.0 °F29 %30.19 in10.0 miSE (130°)13.8 mph23.0 mphMostly Cloudy
12:53 PM52.0 °F17.1 °F25 %30.19 in10.0 miSSE (150°)13.8 mphMostly Cloudy
1:53 PM53.1 °F19.0 °F26 %30.19 in10.0 miSouth (190°)8.1 mphMostly Cloudy
2:53 PM53.1 °F19.9 °F27 %30.17 in10.0 miCalmMostly Cloudy
3:53 PM54.0 °F21.0 °F28 %30.16 in10.0 miESE (120°)3.5 mphOvercast
4:53 PM53.1 °F21.0 °F29 %30.17 in10.0 miCalmMostly Cloudy
5:53 PM54.0 °F21.0 °F28 %30.17 in10.0 miENE (60°)10.4 mphMostly Cloudy
6:53 PM50.0 °F25.0 °F38 %30.19 in10.0 miNE (50°)16.1 mphMostly Cloudy
7:53 PM46.0 °F26.1 °F46 %30.22 in10.0 miENE (60°)11.5 mphScattered Clouds
8:53 PM43.0 °F30.0 °F60 %30.26 in10.0 miNE (50°)13.8 mphScattered Clouds
9:53 PM41.0 °F32.0 °F70 %30.26 in10.0 miENE (70°)12.7 mphScattered Clouds
10:53 PM39.0 °F32.0 °F76 %30.28 in10.0 miEast (90°)8.1 mphScattered Clouds
11:53 PM36.0 °F30.9 °F82 %30.30 in10.0 miSSE (150°)3.5 mphPartly Cloudy
Hourly data recorded from KICT, located miles away from Greenwich, Kansas







STORIES FROM OUR PARTNERS